Location: Asheville, NC
(35.6000°N, 82.5500°W)
Time: 15:28:31
(UTC-04:00)

ISS - Pass Details

Date: 08 May 2026
Orbit: 414 x 424 km, 51.6° (Epoch: 15 May)

Event Time Altitude Azimuth Distance (km) Brightness Sun altitude
Exits shadow 04:19:45 - 321° (NW) 2,275 0.0 -23.2°
Reaches altitude 10° 04:21:51 10° 334° (NNW) 1,493 -0.8 -22.9°
Maximum altitude 04:24:45 27° 34° (NE) 843 -1.5 -22.5°
Drops below altitude 10° 04:27:40 10° 94° (E) 1,492 -0.4 -22.1°
Sets 04:29:58 0° 107° (ESE) 2,355 0.5 -21.7°
